Location: Montbazon
(47.2835°N, 0.6999°E)
Time: 00:57:24
(UTC+00:00)

ACS3 Solar Sail - Pass Details

Date: 08 November 2025
Orbit: 887 x 1001 km, 97.3° (Epoch: 13 December)

Event Time Altitude Azimuth Distance (km) Brightness Sun altitude
Rises 05:22:16 0° 359° (N) 3,521 4.6 -15.3°
Reaches altitude 10° 05:25:39 10° 338° (NNW) 2,590 3.7 -14.7°
Enters shadow 05:28:24 15° 309° (NW) 2,233 3.2 -14.2°
